EHI
0 0 0 0 0 0 0 0 0 0 0 0 0 0 0 0 0 0 0 0 0 0 0 0 0 0 0 0 0 0 0 0 0 0 0 0 0 0 0 0 0 0 0
0 0 0 0 0 0 0 0 0 0 0 0 0 0 0 0 0 0 0 0 0 0 0 0 0 0 0 0 0 0 0 0 0 0 0 0 0 0 0 0 0 0 0
0 0 0 0 0 0 0 0 0 0 0 0 0 0 0 0 0 0 0 0 0 0 0 0 0 0 0 0 0 0 0 0 0 0 0 0 0 0 0 0 0 0 0
0 0 0 0 0 0 0 0 0 0 0 0 0 0 0 0 0 0 0 0 0 0 0 0 0 0 0 0 0 0 0 0 0 0 0 0 0 0 0 0 0 0 0
0 0 0 0 0 0 0 0 0 0 0 0 0 0 0 0 0 0 0 0 0 0 0 0 0 0 0 0 0 0 0 0 0 0 0 0 0 0 0 0 0 0 0
0 0 0 0 0 0 0 0 0 0 0 0 0 0 0 0 0 0 0 0 0 0 0 0 0 0 0 0 0 0 0 0 0 0 0 0 0 1 0 0 0 0 0
0 0 0 0 0 0 0 0 0 0 0 0 0 1 1 0 0 0 0 0 0 0 0 0 0 0 0 0 0 0 0 0 0 0 0 0 2 3 2 0 0 0 0
0 0 0 0 0 0 0 0 0 0 0 0 0 1 1 0 0 0 0 0 0 0 0 0 0 0 0 0 0 0 0 0 0 0 0 4 12 12 4 0 0 0 0
0 0 0 0 0 1 0 0 1 0 0 0 0 1 1 0 0 0 0 0 0 0 0 0 0 0 0 0 0 0 0 0 0 0 0 13 29 23 6 0 0 0 0
0 0 0 0 0 0 0 0 1 1 0 0 0 0 0 0 0 0 0 0 0 0 0 0 0 0 0 0 0 0 0 0 0 0 1 20 39 27 4 0 0 0 0
0 0 0 0 0 0 0 1 1 1 0 0 0 0 0 0 0 0 1 2 1 0 0 0 0 0 0 0 0 1 0 0 0 0 6 26 38 19 1 0 0 0 0
0 0 0 0 0 0 0 1 1 2 3 2 0 0 0 0 0 1 3 5 2 0 0 0 0 0 0 0 1 2 1 0 0 0 13 36 34 12 0 0 0 0 0
0 0 0 0 0 0 0 1 2 5 9 7 2 1 4 5 5 8 12 8 2 0 0 0 0 0 0 0 0 1 0 0 0 1 16 36 29 8 0 0 0 0 0
0 0 0 0 0 0 0 0 2 7 10 10 5 4 11 20 22 26 30 21 9 4 3 2 2 1 0 0 0 0 0 0 0 2 13 23 17 5 0 0 0 0 0
0 0 0 0 0 2 2 2 2 3 4 5 6 5 15 32 40 40 42 34 19 12 10 7 5 2 1 1 0 0 0 0 0 2 6 9 7 2 0 0 0 0 0
1 0 1 3 7 11 10 7 5 2 0 1 3 2 10 28 36 33 31 27 19 16 19 16 10 6 5 3 2 1 2 2 2 2 3 3 3 2 1 0 0 0 0
2 3 5 11 21 29 26 20 15 8 3 3 2 1 3 11 17 16 14 12 14 19 25 25 20 19 19 16 11 10 10 9 6 4 2 2 2 2 3 3 2 1 1
5 8 15 25 39 48 42 32 25 18 14 13 10 6 3 2 5 7 8 8 12 19 23 27 32 38 40 35 28 22 19 14 9 5 2 2 3 4 6 9 6 3 2
13 18 32 48 59 57 44 31 23 20 20 18 15 11 5 2 2 3 4 5 7 11 14 19 31 41 42 38 32 24 20 18 16 12 7 6 6 7 8 14 14 7 2
30 37 51 66 66 50 32 20 13 11 11 11 10 7 4 1 0 0 1 1 2 4 6 9 16 22 25 24 19 18 22 26 29 27 21 13 10 8 7 14 19 14 10
46 51 60 61 47 28 15 8 5 2 2 2 2 1 0 0 0 0 0 0 0 1 3 3 4 5 7 8 8 11 18 27 36 38 31 22 12 6 5 9 16 20 22
39 42 45 37 20 8 3 2 1 0 0 0 0 0 0 0 0 0 0 0 0 0 0 0 0 0 0 1 3 5 7 16 26 31 34 31 21 12 6 3 8 16 19
18 19 19 14 6 2 1 1 1 0 0 0 0 1 2 1 0 0 0 0 0 0 0 0 0 0 0 0 0 0 1 5 11 20 28 29 28 22 8 0 3 7 9
7 7 6 6 9 13 14 13 9 3 0 0 0 2 4 2 0 0 0 0 0 0 0 0 0 0 0 0 0 0 0 1 3 9 15 17 20 20 11 5 4 4 5
6 5 4 8 21 33 35 31 21 8 1 0 0 2 3 2 0 0 0 0 0 0 0 0 0 0 0 0 0 0 1 2 1 2 4 8 12 14 16 15 11 9 11
7 5 3 9 26 44 48 40 27 12 4 1 0 0 1 0 0 0 0 0 0 0 0 0 0 0 0 0 0 0 1 1 1 0 1 4 10 16 22 23 17 16 19
Wind_Speed
13 17 19 15 13 11 11 12 14 14 15 15 15 14 13 12 11 10 9 9 8 9 10 10 9 8 9 9 10 11 11 11 9 9 9 9 9 10 10 8 7 8 11
15 18 19 15 14 12 12 12 14 14 14 14 14 13 12 12 11 11 10 9 9 8 8 8 8 7 8 8 9 10 10 10 9 9 9 9 9 8 8 7 1 8 10
17 18 18 15 14 13 12 12 13 14 14 14 13 12 11 11 11 10 10 9 9 8 8 8 8 7 7 7 8 8 9 10 9 8 9 8 9 8 7 6 5 9 8
17 17 16 16 14 13 13 12 13 13 12 12 12 11 10 10 9 9 9 8 8 7 7 7 7 7 7 7 7 7 7 7 9 9 10 6 7 10 8 7 7 8 8
16 15 16 17 15 14 13 12 12 12 12 11 11 10 10 9 8 8 7 7 7 6 6 6 6 6 6 6 5 5 5 6 6 10 5 4 4 9 9 9 8 8 9
15 15 18 17 15 14 13 12 12 11 11 11 10 10 9 9 8 8 8 8 7 7 6 6 5 5 5 5 5 5 5 5 8 11 6 6 6 9 9 11 11 10 10
15 14 18 16 16 15 13 13 12 11 11 11 10 10 10 10 9 9 8 8 7 7 6 6 6 5 5 6 6 7 7 8 11 8 6 7 5 10 10 11 13 14 13
14 14 17 16 15 15 14 14 13 12 12 11 11 11 10 10 9 9 9 9 9 8 8 7 7 7 7 7 7 8 8 11 12 10 9 9 8 10 11 11 12 16 17
12 13 14 16 15 14 13 13 13 13 13 12 12 11 11 10 10 10 10 10 10 10 10 9 9 9 9 8 9 9 10 11 13 9 9 8 10 11 11 13 11 14 17
10 11 12 13 13 13 14 14 13 13 13 13 12 12 12 12 12 12 12 13 12 11 11 11 11 11 11 11 11 11 11 11 15 13 9 6 12 10 12 13 12 11 14
10 9 11 12 11 11 11 14 14 14 14 13 13 14 12 12 13 12 14 10 12 13 13 13 13 13 12 13 15 14 12 10 13 10 8 5 11 10 12 13 13 12 12
12 11 9 9 10 11 9 9 10 11 12 12 11 12 11 10 8 9 4 8 12 14 14 15 14 13 13 11 13 15 9 12 12 9 7 9 10 11 14 14 14 14 14
11 10 10 9 9 9 7 7 6 7 7 9 11 10 9 8 7 8 6 8 11 13 12 11 12 11 11 8 8 7 9 9 7 7 6 11 12 14 15 15 15 16 15
9 10 9 9 8 8 7 6 6 6 6 6 8 10 8 6 7 7 6 8 7 6 7 8 7 9 10 10 10 10 11 8 8 6 4 8 11 13 16 16 15 16 15
9 9 9 8 8 7 6 6 6 7 7 8 7 8 9 7 7 7 7 7 9 8 8 8 9 9 10 10 10 11 11 11 10 9 6 8 12 14 16 17 16 15 14
8 8 8 9 9 8 7 7 6 7 6 8 6 8 8 7 8 8 8 8 9 8 8 7 10 9 9 9 11 11 12 11 10 10 10 9 13 16 17 17 16 15 14
9 8 9 9 9 9 9 8 6 6 7 6 6 7 8 8 8 8 8 9 9 9 9 9 11 9 9 9 11 12 10 10 10 11 11 10 11 14 18 18 17 16 15
8 8 8 7 7 7 7 6 6 6 6 5 5 6 8 8 8 7 7 8 8 7 7 8 9 9 9 9 9 8 8 9 11 11 11 11 10 11 13 19 18 16 15
7 7 7 7 6 6 6 5 5 5 5 5 4 4 5 6 6 5 5 5 7 7 7 8 7 7 9 10 9 9 10 11 12 13 14 14 13 13 13 11 17 17 17
5 5 5 5 5 4 4 3 3 4 4 3 3 2 3 3 4 6 6 6 8 8 8 7 9 9 9 9 11 11 10 11 11 12 14 14 14 15 15 14 12 14 19
6 5 5 3 4 3 2 2 2 2 2 2 2 1 2 3 4 5 7 6 7 8 9 11 11 12 11 9 10 11 12 14 14 12 12 13 14 15 14 13 12 11 9
6 5 5 5 4 4 2 2 2 3 3 3 2 2 2 3 4 5 6 8 8 8 10 11 11 11 11 10 10 11 12 11 12 13 12 13 14 12 13 14 13 11 10
6 5 4 3 4 5 4 4 3 4 5 5 5 4 3 3 5 6 7 9 9 9 9 10 11 13 12 12 12 12 11 11 10 10 13 11 11 11 11 11 11 10 10
5 4 4 5 6 6 6 6 6 6 7 6 5 4 3 4 5 6 8 8 9 9 9 10 10 10 11 11 11 11 13 13 12 10 8 10 11 11 11 8 9 9 9
3 4 5 6 7 7 7 6 7 7 6 5 4 4 5 5 5 6 7 8 9 9 9 10 10 11 10 11 11 11 11 11 14 13 11 9 9 10 9 9 7 7 6
7 7 7 7 8 7 8 7 7 7 7 7 6 6 6 5 4 5 7 8 9 9 9 10 10 12 11 11 11 11 11 10 11 11 13 12 9 7 6 5 5 4 3
Wind_Direction
154 144 148 160 155 146 137 128 128 135 138 136 134 133 134 135 133 127 122 116 113 109 112 115 114 111 110 109 111 119 122 120 120 122 121 116 112 116 121 127 162 129 119
146 143 150 159 155 148 143 134 131 135 138 136 136 136 138 138 136 134 130 126 125 124 123 125 126 125 123 122 123 128 132 133 134 137 137 133 125 123 130 142 266 110 138
144 143 153 159 156 150 147 141 137 139 141 141 140 139 141 142 142 142 140 137 137 138 138 138 136 134 134 135 138 142 143 145 148 156 180 164 135 143 148 151 133 132 152
145 146 154 154 157 152 150 148 145 144 145 145 144 144 146 148 149 152 152 152 152 151 152 152 149 146 146 148 151 154 156 156 163 180 208 158 153 145 173 169 165 162 169
142 145 142 155 158 155 154 154 153 152 151 151 152 152 154 157 161 166 167 169 172 172 174 174 169 163 161 162 165 169 173 180 185 221 211 179 166 138 178 180 185 184 183
144 151 143 160 160 160 161 162 162 162 162 163 164 165 167 171 178 183 185 188 192 194 197 200 197 190 187 186 190 198 205 210 221 227 201 208 197 150 184 189 194 199 198
153 151 146 162 163 165 167 170 171 172 174 177 180 183 185 188 194 200 201 205 210 213 217 223 226 223 219 218 219 219 221 227 250 255 223 219 210 157 201 208 203 203 205
154 154 143 161 167 170 173 176 179 181 185 188 192 196 200 203 209 217 223 225 227 230 232 235 239 243 243 242 241 239 235 241 242 246 240 233 175 168 217 233 228 214 209
160 158 152 166 171 175 180 184 187 189 193 197 202 206 210 215 220 227 231 234 236 238 240 240 243 248 250 249 248 244 240 243 264 254 242 240 157 182 221 240 249 230 217
167 168 161 179 173 180 182 190 198 201 203 206 211 216 219 223 226 229 234 228 235 241 245 247 250 253 253 248 248 246 243 242 248 253 243 214 157 193 227 239 245 245 226
179 186 182 183 180 193 195 179 195 205 210 213 214 218 225 234 231 217 227 222 231 242 247 249 252 255 256 245 240 242 240 246 250 253 257 157 160 204 236 245 244 243 237
182 189 191 198 187 203 208 189 203 211 206 216 226 217 220 234 251 257 213 217 241 249 253 250 251 254 251 250 229 217 238 242 256 256 243 160 179 217 237 244 246 244 242
175 185 191 202 201 211 207 217 216 222 220 222 233 237 243 254 250 250 248 221 226 235 244 239 235 244 250 255 273 256 256 262 259 260 243 170 194 223 238 240 241 243 242
170 179 192 195 204 219 231 226 231 235 230 229 228 235 242 249 258 262 262 270 266 252 250 258 257 257 263 270 268 271 271 267 271 275 272 190 203 227 242 244 242 242 239
175 182 188 193 202 211 227 249 248 248 249 239 234 237 239 250 263 271 276 277 279 280 270 262 270 273 270 266 266 264 262 263 266 269 274 239 220 228 241 247 246 246 242
188 191 193 201 202 208 217 230 247 257 251 265 258 256 259 262 268 273 273 274 272 272 275 273 268 267 266 265 265 267 267 264 261 266 266 262 233 225 233 241 245 247 247
195 204 206 209 210 212 227 238 245 250 254 259 266 269 269 266 268 269 270 268 268 269 268 264 265 260 255 253 254 256 258 260 262 264 265 266 264 234 223 229 236 240 244
205 211 218 224 218 218 234 255 269 273 276 276 281 283 286 285 278 275 270 271 279 278 271 268 265 267 261 255 253 251 248 247 249 252 253 250 255 263 239 218 222 228 236
209 217 222 230 234 234 242 250 260 272 282 285 292 299 305 302 306 294 286 289 287 279 275 274 276 273 272 268 262 250 244 243 239 239 242 245 246 247 256 231 208 216 227
185 195 206 208 214 225 228 237 262 273 277 278 287 304 311 317 328 318 299 303 299 290 286 286 288 277 273 272 271 267 257 247 239 236 237 239 241 242 243 249 232 216 216
156 163 175 180 161 189 196 245 255 270 284 283 283 318 304 324 331 312 307 310 293 289 292 290 286 280 270 267 265 263 255 247 242 238 236 241 242 240 242 243 246 249 226
157 158 168 176 170 196 182 237 274 300 285 301 283 247 277 312 316 305 310 298 295 293 283 279 277 277 276 266 261 267 264 252 236 234 233 234 241 242 240 236 237 239 250
172 179 183 185 191 210 211 228 223 236 249 239 244 240 258 296 301 305 298 296 299 291 288 288 285 277 274 270 257 255 263 260 257 237 225 230 236 241 244 243 237 236 237
195 204 208 217 222 221 224 241 262 280 291 302 292 292 288 278 295 298 295 293 287 283 280 276 274 273 271 269 263 250 253 273 276 264 230 222 226 233 240 236 235 231 235
283 275 257 244 240 233 234 239 251 266 284 290 285 270 279 284 283 293 300 299 293 288 290 288 283 275 268 266 268 265 253 248 251 258 258 243 218 220 224 224 234 240 239
326 308 290 270 257 246 238 242 248 269 278 283 274 280 278 289 290 298 304 301 295 297 298 293 288 280 273 270 267 264 258 250 243 241 245 247 242 230 218 222 227 226 227